Regional Weather Roundup
Issued by NWS

Home | Current Version | Previous Version | Text Only | Print | Product List | Glossary On
Versions: 1 2 3 4 5 6 7 8 9 10 11 12 13 14 15 16 17 18 19 20 21 22 23 24 25 26 27 28 29 30 31 32 33 34 35 36 37 38 39 40 41 42 43 44 45 46 47 48 49 50
000
ASCA42 TJSJ 311811
RWRPR
PUERTO RICO/U.S. VIRGIN ISLANDS HOURLY WEATHER ROUNDUP
NATIONAL WEATHER SERVICE SAN JUAN PR
200 PM AST SAT JAN 31 2015

PRZ001-004-311900-
PUERTO RICO

CITY           SKY/WX    TMP DP  RH WIND       PRES   REMARKS
SAN JUAN LMM   MOSUNNY   82  72  69 E13       29.99F
MAYAGUEZ       PTSUNNY   82  66  57 W10       30.03F
AGUADILLA      MOSUNNY   82  70  65 E13       30.01F
CEIBA          SUNNY     82  70  65 E9        30.02F
$$

PRZ006-007-311900-
U.S. VIRGIN ISLANDS

CITY           SKY/WX    TMP DP  RH WIND       PRES   REMARKS
$$

HOURLY WEATHER ROUNDUP FOR THE NEWS MEDIA

CITY           SKY/WX    TMP DP  RH WIND       PRES   REMARKS
MIAMI          PTSUNNY   72  51  47 E15G24    30.21F
ORLANDO        SUNNY     68  46  45 E10       30.28F
NEW YORK       SUNNY     23  -1  35 NW28G36   30.10F WCI   6
NEWARK         SUNNY     23   0  36 NW21G32   30.12F WCI   8
CHICAGO        PTSUNNY   35  23  61 W13       30.18F WCI  26
HARTFORD       MOSUNNY   21  -6  30 NW20G36   29.82S WCI   6
BOSTON         MOSUNNY   20  -5  33 NW25G39   29.84S WCI   2
DALLAS         CLOUDY    53  35  50 SE14      30.13F
PHILADELPHIA   SUNNY     26   1  34 NW17      30.23F WCI  13


USA.gov is the U.S. government's official web portal to all federal, state and local government web resources and services.